Year,Month,Day,Hour,Minute,Value (Times are PST for windspeed in km/hr)
2008,05,30,00,00,11.00
2008,05,30,00,01,11.20
2008,05,30,00,02,12.50
2008,05,30,00,03,15.10
2008,05,30,00,04,9.10
2008,05,30,00,05,9.30
2008,05,30,00,06,14.60
2008,05,30,00,07,14.40
2008,05,30,00,08,19.00
2008,05,30,00,09,13.00
2008,05,30,00,10,8.10
2008,05,30,00,11,10.90
2008,05,30,00,12,17.10
2008,05,30,00,13,12.80
2008,05,30,00,14,11.40
2008,05,30,00,15,9.90
2008,05,30,00,16,13.90
2008,05,30,03,02,5.80
2008,05,30,03,03,8.60
2008,05,30,03,04,8.90
2008,05,30,03,05,8.00
2008,05,30,03,06,5.80
2008,05,30,03,07,5.20
2008,05,30,03,08,9.20
2008,05,30,03,09,8.60
2008,05,30,03,10,9.90
2008,05,30,03,11,9.00
2008,05,30,03,12,8.40
2008,05,30,03,13,9.20
2008,05,30,03,14,8.70
2008,05,30,03,15,4.90
2008,05,30,03,16,6.40
2008,05,30,03,17,6.40
2008,05,30,03,18,8.40
2008,05,30,03,19,9.30
2008,05,30,03,20,7.20
2008,05,30,03,21,13.00
2008,05,30,03,22,12.00
2008,05,30,03,23,7.10
2008,05,30,03,24,8.20
2008,05,30,03,25,5.90
2008,05,30,03,26,7.70
2008,05,30,03,27,8.70
2008,05,30,03,28,8.70
2008,05,30,03,29,6.50
2008,05,30,03,30,8.00
2008,05,30,03,31,7.70
2008,05,30,03,32,7.80
2008,05,30,03,33,6.00
2008,05,30,03,34,8.50
2008,05,30,03,35,8.30
2008,05,30,03,36,6.20
2008,05,30,03,37,8.00
2008,05,30,03,38,6.40
2008,05,30,03,39,4.70
2008,05,30,03,40,3.90
2008,05,30,03,41,8.80
2008,05,30,03,42,6.70
2008,05,30,03,43,6.60
2008,05,30,03,44,9.90
2008,05,30,03,45,7.70
2008,05,30,03,46,6.80
2008,05,30,03,47,7.20
2008,05,30,03,48,4.10
2008,05,30,03,49,6.40
2008,05,30,03,50,5.20
2008,05,30,03,51,4.00
2008,05,30,03,52,6.00
2008,05,30,03,53,7.70
2008,05,30,03,54,5.20
2008,05,30,03,55,9.40
2008,05,30,03,56,5.00
2008,05,30,03,57,7.00
2008,05,30,03,58,5.70
2008,05,30,03,59,3.00
2008,05,30,04,00,1.80
2008,05,30,04,01,7.50
2008,05,30,04,02,7.60
2008,05,30,04,03,9.10
2008,05,30,04,04,10.30
2008,05,30,04,05,13.40
2008,05,30,04,06,9.70
2008,05,30,04,07,11.90
2008,05,30,04,08,8.90
2008,05,30,04,09,5.50
2008,05,30,04,10,8.80
2008,05,30,04,11,10.40
2008,05,30,04,12,6.90
2008,05,30,04,13,6.70
2008,05,30,04,14,9.10
2008,05,30,04,15,12.30
2008,05,30,04,16,9.80
2008,05,30,04,17,10.10
2008,05,30,04,18,6.10
2008,05,30,04,19,8.50
2008,05,30,04,20,9.00
2008,05,30,04,21,11.30
2008,05,30,04,22,7.40
2008,05,30,04,23,9.80
2008,05,30,04,24,8.20
2008,05,30,04,25,14.40
2008,05,30,04,26,10.10
2008,05,30,04,27,8.70
2008,05,30,04,28,7.00
2008,05,30,04,29,4.60
2008,05,30,04,30,6.50
2008,05,30,04,31,9.60
2008,05,30,04,32,9.20
2008,05,30,04,33,7.00
2008,05,30,04,34,8.50
2008,05,30,04,35,5.70
2008,05,30,04,36,9.40
2008,05,30,04,37,9.30
2008,05,30,04,38,9.70
2008,05,30,04,39,6.10
2008,05,30,04,40,5.90
2008,05,30,04,41,8.40
2008,05,30,04,42,10.10
2008,05,30,04,43,8.00
2008,05,30,04,44,5.60
2008,05,30,04,45,9.70
2008,05,30,04,46,8.50
2008,05,30,04,47,8.90
2008,05,30,04,48,7.60
2008,05,30,04,49,10.10
2008,05,30,04,50,11.80
2008,05,30,04,51,11.60
2008,05,30,04,52,7.30
2008,05,30,04,53,10.30
2008,05,30,04,54,12.00
2008,05,30,04,55,9.40
2008,05,30,04,56,11.30
2008,05,30,04,57,7.50
2008,05,30,04,58,5.20
2008,05,30,04,59,7.00
2008,05,30,05,00,9.60
2008,05,30,05,01,10.80
2008,05,30,05,02,8.80
2008,05,30,05,03,8.80
2008,05,30,05,04,8.20
2008,05,30,05,05,4.00
2008,05,30,05,06,10.40
2008,05,30,05,07,11.30
2008,05,30,05,08,11.10
2008,05,30,05,09,11.70
2008,05,30,05,10,9.30
2008,05,30,05,11,5.80
2008,05,30,05,12,6.20
2008,05,30,05,13,8.20
2008,05,30,05,14,11.00
2008,05,30,05,15,9.70
2008,05,30,05,16,10.80
2008,05,30,05,17,10.50
2008,05,30,05,18,9.10
2008,05,30,05,19,8.90
2008,05,30,05,20,8.50
2008,05,30,05,21,6.50
2008,05,30,05,22,8.90
2008,05,30,05,23,6.30
2008,05,30,05,24,12.70
2008,05,30,05,25,12.90
2008,05,30,05,26,10.50
2008,05,30,05,27,8.50
2008,05,30,05,28,10.80
2008,05,30,05,29,8.60
2008,05,30,05,30,6.10
2008,05,30,05,31,11.00
2008,05,30,05,32,10.50
2008,05,30,05,33,8.60
2008,05,30,05,34,6.60
2008,05,30,05,35,4.60
2008,05,30,05,36,7.30
2008,05,30,05,37,13.10
2008,05,30,05,38,13.00
2008,05,30,05,39,13.60
2008,05,30,05,40,12.00
2008,05,30,05,41,7.60
2008,05,30,05,42,6.30
2008,05,30,05,43,10.60
2008,05,30,05,44,8.60
2008,05,30,05,45,9.70
2008,05,30,05,46,11.70
2008,05,30,05,47,6.40
2008,05,30,05,48,8.50
2008,05,30,05,49,9.30
2008,05,30,05,50,12.40
2008,05,30,05,51,11.20
2008,05,30,05,52,10.30
2008,05,30,05,53,5.10
2008,05,30,05,54,7.30
2008,05,30,05,55,9.00
2008,05,30,05,56,9.30
2008,05,30,05,57,8.40
2008,05,30,05,58,9.70
2008,05,30,05,59,11.60
2008,05,30,06,00,7.80
2008,05,30,06,01,5.80
2008,05,30,06,02,8.90
2008,05,30,06,03,6.30
2008,05,30,06,04,5.90
2008,05,30,06,05,6.10
2008,05,30,06,06,8.30
2008,05,30,06,07,9.10
2008,05,30,06,08,7.60
2008,05,30,06,09,6.40
2008,05,30,06,10,11.30
2008,05,30,06,11,10.70
2008,05,30,06,12,10.50
2008,05,30,06,13,5.90
2008,05,30,06,14,4.40
2008,05,30,06,15,4.90
2008,05,30,06,16,6.60
2008,05,30,06,17,5.30
2008,05,30,06,18,6.20
2008,05,30,06,19,9.80
2008,05,30,06,20,10.00
2008,05,30,06,21,6.60
2008,05,30,06,22,5.80
2008,05,30,06,23,6.20
2008,05,30,06,24,4.90
2008,05,30,06,25,6.40
2008,05,30,06,26,5.20
2008,05,30,06,27,8.00
2008,05,30,06,28,6.20
2008,05,30,06,29,3.50
2008,05,30,06,30,6.50
2008,05,30,06,31,3.90
2008,05,30,06,32,4.30
2008,05,30,06,33,8.70
2008,05,30,06,34,6.70
2008,05,30,06,35,6.40
2008,05,30,06,36,4.70
2008,05,30,06,37,6.40
2008,05,30,06,38,6.40
2008,05,30,06,39,5.10
2008,05,30,06,40,6.40
2008,05,30,06,41,4.50
2008,05,30,06,42,3.40
2008,05,30,06,43,4.30
2008,05,30,06,44,4.20
2008,05,30,06,45,4.20
2008,05,30,06,46,4.80
2008,05,30,06,47,2.80
2008,05,30,06,48,7.90
2008,05,30,06,49,7.80
2008,05,30,06,50,3.50
2008,05,30,06,51,4.90
2008,05,30,06,52,6.20
2008,05,30,06,53,3.30
2008,05,30,06,54,7.20
2008,05,30,06,55,3.90
2008,05,30,06,56,6.60
2008,05,30,06,57,5.80
2008,05,30,06,58,6.40
2008,05,30,06,59,7.70
2008,05,30,07,00,5.30
2008,05,30,07,01,3.90
2008,05,30,07,02,7.70
2008,05,30,07,03,4.20
2008,05,30,07,04,3.60
2008,05,30,07,05,4.90
2008,05,30,07,06,6.70
2008,05,30,07,07,7.40
2008,05,30,07,08,4.30
2008,05,30,07,09,4.30
2008,05,30,07,10,3.00
2008,05,30,07,11,2.70
2008,05,30,07,12,5.00
2008,05,30,07,13,5.30
2008,05,30,07,14,8.10
2008,05,30,07,15,6.80
2008,05,30,07,16,3.10
2008,05,30,07,17,4.70
2008,05,30,07,18,4.30
2008,05,30,07,19,6.60
2008,05,30,07,20,7.40
2008,05,30,07,21,9.10
2008,05,30,07,22,3.30
2008,05,30,07,23,3.70
2008,05,30,07,24,3.10
2008,05,30,07,25,7.50
2008,05,30,07,26,5.10
2008,05,30,07,27,2.80
2008,05,30,07,28,5.00
2008,05,30,07,29,6.30
2008,05,30,07,30,3.80
2008,05,30,07,31,6.60
2008,05,30,07,32,7.60
2008,05,30,07,33,7.10
2008,05,30,07,34,3.00
2008,05,30,07,35,5.70
2008,05,30,07,36,6.20
2008,05,30,07,37,3.30
2008,05,30,07,38,1.90
2008,05,30,07,39,2.40
2008,05,30,07,40,4.30
2008,05,30,07,41,5.30
2008,05,30,07,42,2.30
2008,05,30,07,43,3.20
2008,05,30,07,44,6.60
2008,05,30,07,45,5.90
2008,05,30,07,46,2.90
2008,05,30,07,47,4.70
2008,05,30,07,48,3.50
2008,05,30,07,49,1.90
2008,05,30,07,50,0.50
2008,05,30,07,51,0.60
2008,05,30,07,52,2.00
2008,05,30,07,53,0.30
2008,05,30,07,54,0.00
2008,05,30,07,55,0.70
2008,05,30,07,56,0.20
2008,05,30,07,57,1.40
2008,05,30,07,58,1.50
2008,05,30,07,59,0.90
2008,05,30,08,00,2.60
2008,05,30,08,01,0.90
2008,05,30,08,02,0.90
2008,05,30,08,03,1.00
2008,05,30,08,04,0.00
2008,05,30,08,05,0.00
2008,05,30,08,06,0.20
2008,05,30,08,07,1.40
2008,05,30,08,08,0.40
2008,05,30,08,09,0.60
2008,05,30,08,10,0.10
2008,05,30,08,11,0.00
2008,05,30,08,12,2.30
2008,05,30,08,13,4.30
2008,05,30,08,14,5.20
2008,05,30,08,15,0.40
2008,05,30,08,16,0.40
2008,05,30,08,17,0.00
2008,05,30,08,18,0.50
2008,05,30,08,19,1.60
2008,05,30,08,20,0.20
2008,05,30,08,21,0.00
2008,05,30,08,22,0.00
2008,05,30,08,23,0.00
2008,05,30,08,24,0.50
2008,05,30,08,25,1.20
2008,05,30,08,26,0.10
2008,05,30,08,27,0.00
2008,05,30,08,28,0.00
2008,05,30,08,29,0.00
2008,05,30,08,30,0.00
2008,05,30,08,31,0.20
2008,05,30,08,32,0.00
2008,05,30,08,33,0.00
2008,05,30,08,34,0.10
2008,05,30,08,35,0.20
2008,05,30,08,36,1.00
2008,05,30,08,37,1.70
2008,05,30,08,38,0.20
2008,05,30,08,39,0.10
2008,05,30,08,40,0.00
2008,05,30,08,41,1.30
2008,05,30,08,42,2.80
2008,05,30,08,43,0.50
2008,05,30,08,44,1.50
2008,05,30,08,45,0.20
2008,05,30,08,46,0.50
2008,05,30,08,47,0.70
2008,05,30,08,48,1.40
2008,05,30,08,49,2.50
2008,05,30,08,50,0.10
2008,05,30,08,51,0.00
2008,05,30,08,52,0.80
2008,05,30,08,53,1.40
2008,05,30,08,54,1.40
2008,05,30,08,55,1.60
2008,05,30,08,56,3.90
2008,05,30,08,57,2.50
2008,05,30,08,58,1.60
2008,05,30,08,59,0.00
2008,05,30,09,00,0.30
2008,05,30,09,01,0.20
2008,05,30,09,02,1.20
2008,05,30,09,03,2.70
2008,05,30,09,04,2.60
2008,05,30,09,05,0.20
2008,05,30,09,06,0.50
2008,05,30,09,07,1.00
2008,05,30,09,08,1.00
2008,05,30,09,09,0.40
2008,05,30,09,10,2.70
2008,05,30,09,11,1.20
2008,05,30,09,12,4.70
2008,05,30,09,13,6.40
2008,05,30,09,14,2.00
2008,05,30,09,15,1.00
2008,05,30,09,16,4.80
2008,05,30,09,17,2.80
2008,05,30,09,18,7.00
2008,05,30,09,19,7.10
2008,05,30,09,20,6.60
2008,05,30,09,21,1.20
2008,05,30,09,22,0.00
2008,05,30,09,23,0.30
2008,05,30,09,24,3.10
2008,05,30,09,25,1.70
2008,05,30,09,26,1.40
2008,05,30,09,27,5.50
2008,05,30,09,28,4.50
2008,05,30,09,29,6.10
2008,05,30,09,30,4.60
2008,05,30,09,31,2.70
2008,05,30,09,32,2.30
2008,05,30,09,33,4.80
2008,05,30,09,34,7.00
2008,05,30,09,35,5.60
2008,05,30,09,36,4.90
2008,05,30,09,37,6.70
2008,05,30,09,38,4.10
2008,05,30,09,39,5.80
2008,05,30,09,40,3.60
2008,05,30,09,41,2.40
2008,05,30,09,42,6.80
2008,05,30,09,43,5.60
2008,05,30,09,44,4.50
2008,05,30,09,45,3.20
2008,05,30,09,46,3.60
2008,05,30,09,47,6.60
2008,05,30,09,48,7.50
2008,05,30,09,49,4.80
2008,05,30,09,50,5.30
2008,05,30,09,51,4.70
2008,05,30,09,52,4.10
2008,05,30,09,53,5.20
2008,05,30,09,54,5.10
2008,05,30,09,55,5.70
2008,05,30,09,56,5.20
2008,05,30,09,57,4.40
2008,05,30,09,58,5.10
2008,05,30,09,59,3.10
2008,05,30,10,00,3.90
2008,05,30,10,01,5.60
2008,05,30,10,02,6.60
2008,05,30,10,03,4.10
2008,05,30,10,04,4.10
2008,05,30,10,05,0.50
2008,05,30,10,06,1.10
2008,05,30,10,07,4.50
2008,05,30,10,08,4.10
2008,05,30,10,09,3.20
2008,05,30,10,10,6.60
2008,05,30,10,11,5.40
2008,05,30,10,12,3.00
2008,05,30,10,13,4.70
2008,05,30,10,14,3.10
2008,05,30,10,15,5.60
2008,05,30,10,16,3.90
2008,05,30,10,17,1.10
2008,05,30,10,18,6.10
2008,05,30,10,19,5.20
2008,05,30,10,20,4.30
2008,05,30,10,21,4.60
2008,05,30,10,22,3.00
2008,05,30,10,23,1.60
2008,05,30,10,24,3.00
2008,05,30,10,25,1.50
2008,05,30,10,26,3.80
2008,05,30,10,27,3.60
2008,05,30,10,28,2.10
2008,05,30,10,29,2.50
2008,05,30,10,30,2.80
2008,05,30,10,31,3.50
2008,05,30,10,32,4.10
2008,05,30,10,33,2.40
2008,05,30,10,34,4.30
2008,05,30,10,35,1.40
2008,05,30,10,36,3.60
2008,05,30,10,37,7.70
2008,05,30,10,38,7.00
2008,05,30,10,39,2.00
2008,05,30,10,40,5.70
2008,05,30,10,41,6.90
2008,05,30,10,42,4.30
2008,05,30,10,43,3.40
2008,05,30,10,44,3.60
2008,05,30,10,45,3.10
2008,05,30,10,46,5.70
2008,05,30,10,47,0.00
2008,05,30,10,48,5.70
2008,05,30,10,49,3.90
2008,05,30,10,50,7.00
2008,05,30,10,51,7.80
2008,05,30,10,52,2.70
2008,05,30,10,53,1.40
2008,05,30,10,54,0.00
2008,05,30,10,55,0.60
2008,05,30,10,56,0.60
2008,05,30,10,57,2.00
2008,05,30,10,58,7.20
2008,05,30,10,59,6.60
2008,05,30,11,00,5.40
2008,05,30,11,01,2.30
2008,05,30,11,02,2.40
2008,05,30,11,03,4.30
2008,05,30,11,04,4.60
2008,05,30,11,05,4.90
2008,05,30,11,06,3.90
2008,05,30,11,07,2.20
2008,05,30,11,08,5.50
2008,05,30,11,09,4.10
2008,05,30,11,10,2.30
2008,05,30,11,11,6.00
2008,05,30,11,12,3.50
2008,05,30,11,13,5.40
2008,05,30,11,14,4.00
2008,05,30,11,15,5.20
2008,05,30,11,16,8.90
2008,05,30,11,17,4.80
2008,05,30,11,18,4.70
2008,05,30,11,19,6.30
2008,05,30,11,20,5.20
2008,05,30,11,21,5.40
2008,05,30,11,22,2.90
2008,05,30,11,23,2.90
2008,05,30,11,24,4.70
2008,05,30,11,25,5.60
2008,05,30,11,26,6.40
2008,05,30,11,27,6.00
2008,05,30,11,28,6.00
2008,05,30,11,29,4.60
2008,05,30,11,30,4.70
2008,05,30,11,31,6.00
2008,05,30,11,32,11.60
2008,05,30,11,33,6.50
2008,05,30,11,34,6.90
2008,05,30,11,35,6.90
2008,05,30,11,36,6.50
2008,05,30,11,37,5.10
2008,05,30,11,38,7.40
2008,05,30,11,39,3.50
2008,05,30,11,40,8.80
2008,05,30,11,41,6.30
2008,05,30,11,42,3.20
2008,05,30,11,43,3.70
2008,05,30,11,44,5.60
2008,05,30,11,45,5.70
2008,05,30,11,46,7.20
2008,05,30,11,47,5.80
2008,05,30,11,48,6.50
2008,05,30,11,49,7.80
2008,05,30,11,50,7.80
2008,05,30,11,51,7.60
2008,05,30,11,52,7.80
2008,05,30,11,53,7.10
2008,05,30,11,54,9.80
2008,05,30,11,55,11.60
2008,05,30,11,56,10.60
2008,05,30,11,57,10.30
2008,05,30,11,58,9.30
2008,05,30,11,59,8.70
2008,05,30,12,00,3.50
2008,05,30,12,01,7.60
2008,05,30,12,02,8.10
2008,05,30,12,03,5.20
2008,05,30,12,04,11.30
2008,05,30,12,05,10.00
2008,05,30,12,06,10.50
2008,05,30,12,07,9.30
2008,05,30,12,08,8.10
2008,05,30,12,09,7.60
2008,05,30,12,10,5.40
2008,05,30,12,11,6.30
2008,05,30,12,12,5.90
2008,05,30,12,13,6.50
2008,05,30,12,14,4.70
2008,05,30,12,15,5.50
2008,05,30,12,16,3.50
2008,05,30,12,17,9.50
2008,05,30,12,18,7.60
2008,05,30,12,19,9.20
2008,05,30,12,20,6.50
2008,05,30,12,21,7.20
2008,05,30,12,22,10.70
2008,05,30,12,23,6.80
2008,05,30,12,24,8.70
2008,05,30,12,25,8.00
2008,05,30,12,26,8.30
2008,05,30,12,27,9.60
2008,05,30,12,28,9.70
2008,05,30,12,29,9.70
2008,05,30,12,30,5.70
2008,05,30,12,31,4.20
2008,05,30,12,32,8.90
2008,05,30,12,33,11.80
2008,05,30,12,34,11.30
2008,05,30,12,35,7.00
2008,05,30,12,36,10.40
2008,05,30,12,37,6.60
2008,05,30,12,38,4.60
2008,05,30,12,39,8.30
2008,05,30,12,40,11.10
2008,05,30,12,41,11.40
2008,05,30,12,42,11.40
2008,05,30,12,43,11.90
2008,05,30,12,44,11.30
2008,05,30,12,45,6.00
2008,05,30,12,46,10.20
2008,05,30,12,47,6.30
2008,05,30,12,48,9.00
2008,05,30,12,49,6.30
2008,05,30,12,50,5.10
2008,05,30,12,51,7.70
2008,05,30,12,52,10.50
2008,05,30,12,53,6.40
2008,05,30,12,54,9.10
2008,05,30,12,55,9.20
2008,05,30,12,56,11.80
2008,05,30,12,57,12.30
2008,05,30,12,58,7.00
2008,05,30,12,59,11.50
2008,05,30,13,00,8.50
2008,05,30,13,01,7.70
2008,05,30,13,02,8.50
2008,05,30,13,03,8.50
2008,05,30,13,04,11.30
2008,05,30,13,05,9.30
2008,05,30,13,06,8.30
2008,05,30,13,07,5.80
2008,05,30,13,08,6.80
2008,05,30,13,09,7.00
2008,05,30,13,10,5.30
2008,05,30,13,11,9.10
2008,05,30,13,12,7.90
2008,05,30,13,13,9.10
2008,05,30,13,14,10.80
2008,05,30,13,15,8.70
2008,05,30,13,16,6.20
2008,05,30,13,17,10.40
2008,05,30,13,18,9.50
2008,05,30,13,19,9.60
2008,05,30,13,20,8.90
2008,05,30,13,21,8.40
2008,05,30,13,22,9.00
2008,05,30,13,23,9.80
2008,05,30,13,24,11.10
2008,05,30,13,25,7.90
2008,05,30,13,26,4.80
2008,05,30,13,27,9.50
2008,05,30,13,28,7.40
2008,05,30,13,29,9.80
2008,05,30,13,30,13.00
2008,05,30,13,31,12.10
2008,05,30,13,32,10.00
2008,05,30,13,33,10.90
2008,05,30,13,34,8.50
2008,05,30,13,35,6.40
2008,05,30,13,36,7.40
2008,05,30,13,37,4.00
2008,05,30,13,38,9.00
2008,05,30,13,39,5.70
2008,05,30,13,40,8.60
2008,05,30,13,41,5.50
2008,05,30,13,42,6.20
2008,05,30,13,43,7.00
2008,05,30,13,44,7.00
2008,05,30,13,45,4.40
2008,05,30,13,46,5.30
2008,05,30,13,47,6.80
2008,05,30,13,48,12.40
2008,05,30,13,49,5.30
2008,05,30,13,50,7.90
2008,05,30,13,51,6.30
2008,05,30,13,52,4.30
2008,05,30,13,53,3.60
2008,05,30,13,54,5.10
2008,05,30,13,55,10.90
2008,05,30,13,56,10.20
2008,05,30,13,57,6.50
2008,05,30,13,58,6.60
2008,05,30,13,59,4.80
2008,05,30,14,00,8.90
2008,05,30,14,01,10.40
2008,05,30,14,02,4.80
2008,05,30,14,03,8.00
2008,05,30,14,04,12.80
2008,05,30,14,05,15.90
2008,05,30,14,06,8.30
2008,05,30,14,07,8.70
2008,05,30,14,08,6.00
2008,05,30,14,09,7.70
2008,05,30,14,10,6.50
2008,05,30,14,11,4.90
2008,05,30,14,12,6.30
2008,05,30,14,13,6.40
2008,05,30,14,14,6.40
2008,05,30,14,15,3.60
2008,05,30,14,16,4.80
2008,05,30,14,17,9.00
2008,05,30,14,18,6.60
2008,05,30,14,19,10.00
2008,05,30,14,20,9.40
2008,05,30,14,21,10.70
2008,05,30,14,22,10.20
2008,05,30,14,23,6.80
2008,05,30,14,24,6.90
2008,05,30,14,25,8.30
2008,05,30,14,26,5.50
2008,05,30,14,27,5.30
2008,05,30,14,28,8.60
2008,05,30,14,29,6.40
2008,05,30,14,30,7.50
2008,05,30,14,31,7.20
2008,05,30,14,32,7.40
2008,05,30,14,33,8.00
2008,05,30,14,34,5.30
2008,05,30,14,35,4.80
2008,05,30,14,36,7.20
2008,05,30,14,37,5.90
2008,05,30,14,38,11.50
2008,05,30,14,39,7.40
2008,05,30,14,40,10.60
2008,05,30,14,41,6.20
2008,05,30,14,42,5.50
2008,05,30,14,43,5.10
2008,05,30,14,44,4.50
2008,05,30,14,45,11.00
2008,05,30,14,46,11.30
2008,05,30,14,47,6.40
2008,05,30,14,48,5.60
2008,05,30,14,49,10.80
2008,05,30,14,50,7.10
2008,05,30,14,51,9.80
2008,05,30,14,52,3.50
2008,05,30,14,53,8.70
2008,05,30,14,54,6.70
2008,05,30,14,55,6.20
2008,05,30,14,56,10.80
2008,05,30,14,57,3.90
2008,05,30,14,58,5.80
2008,05,30,14,59,5.30
2008,05,30,15,00,3.50
2008,05,30,15,01,8.60
2008,05,30,15,02,4.60
2008,05,30,15,03,3.20
2008,05,30,15,04,4.30
2008,05,30,15,05,8.10
2008,05,30,15,06,6.50
2008,05,30,15,07,3.80
2008,05,30,15,08,9.70
2008,05,30,15,09,7.10
2008,05,30,15,10,9.00
2008,05,30,15,11,7.40
2008,05,30,15,12,5.80
2008,05,30,15,13,13.50
2008,05,30,15,14,7.00
2008,05,30,15,15,9.80
2008,05,30,15,16,8.40
2008,05,30,15,17,7.80
2008,05,30,15,18,8.10
2008,05,30,15,19,6.20
2008,05,30,15,20,7.30
2008,05,30,15,21,6.70
2008,05,30,15,22,8.10
2008,05,30,15,23,4.30
2008,05,30,15,24,3.50
2008,05,30,15,25,3.10
2008,05,30,15,26,1.60
2008,05,30,15,27,5.10
2008,05,30,15,28,2.10
2008,05,30,15,29,4.30
2008,05,30,15,30,6.00
2008,05,30,15,31,5.70
2008,05,30,15,32,4.90
2008,05,30,15,33,3.80
2008,05,30,15,34,7.90
2008,05,30,15,35,5.10
2008,05,30,15,36,9.00
2008,05,30,15,37,9.70
2008,05,30,15,38,7.70
2008,05,30,15,39,5.90
2008,05,30,15,40,4.50
2008,05,30,15,41,6.80
2008,05,30,15,42,4.90
2008,05,30,15,43,6.60
2008,05,30,15,44,3.10
2008,05,30,15,45,3.40
2008,05,30,15,46,9.80
2008,05,30,15,47,9.70
2008,05,30,15,48,7.10
2008,05,30,15,49,6.40
2008,05,30,15,50,3.90
2008,05,30,15,51,4.90
2008,05,30,15,52,2.60
2008,05,30,15,53,5.90
2008,05,30,15,54,7.30
2008,05,30,15,55,10.10
2008,05,30,15,56,5.60
2008,05,30,15,57,6.40
2008,05,30,15,58,7.90
2008,05,30,15,59,6.20
2008,05,30,16,00,5.60
2008,05,30,16,01,6.40
2008,05,30,16,02,8.10
2008,05,30,16,03,9.10
2008,05,30,16,04,5.00
2008,05,30,16,05,5.10
2008,05,30,16,06,3.90
2008,05,30,16,07,11.20
2008,05,30,16,08,11.50
2008,05,30,16,09,10.60
2008,05,30,16,10,11.30
2008,05,30,16,11,6.50
2008,05,30,16,12,6.40
2008,05,30,16,13,5.70
2008,05,30,16,14,8.50
2008,05,30,16,15,6.40
2008,05,30,16,16,9.10
2008,05,30,16,17,9.20
2008,05,30,16,18,8.40
2008,05,30,16,19,14.10
2008,05,30,16,20,13.00
2008,05,30,16,21,9.30
2008,05,30,16,22,9.60
2008,05,30,16,23,7.10
2008,05,30,16,24,13.20
2008,05,30,16,25,9.70
2008,05,30,16,26,7.90
2008,05,30,16,27,7.40
2008,05,30,16,28,7.70
2008,05,30,16,29,9.00
2008,05,30,16,30,3.80
2008,05,30,16,31,4.10
2008,05,30,16,32,8.30
2008,05,30,16,33,10.00
2008,05,30,16,34,9.80
2008,05,30,16,35,8.40
2008,05,30,16,36,10.90
2008,05,30,16,37,13.80
2008,05,30,16,38,12.80
2008,05,30,16,39,10.80
2008,05,30,16,40,5.50
2008,05,30,16,41,3.90
2008,05,30,16,42,3.90
2008,05,30,16,43,6.20
2008,05,30,16,44,4.80
2008,05,30,16,45,2.00
2008,05,30,16,46,5.30
2008,05,30,16,47,3.40
2008,05,30,16,48,5.10
2008,05,30,16,49,3.70
2008,05,30,16,50,3.80
2008,05,30,16,51,6.80
2008,05,30,16,52,6.30
2008,05,30,16,53,8.60
2008,05,30,16,54,6.60
2008,05,30,16,55,8.90
2008,05,30,16,56,9.30
2008,05,30,16,57,8.60
2008,05,30,16,58,7.60
2008,05,30,16,59,6.40
2008,05,30,17,00,4.20
2008,05,30,17,01,6.60
2008,05,30,17,02,7.30
2008,05,30,17,03,2.00
2008,05,30,17,04,4.40
2008,05,30,17,05,6.90
2008,05,30,17,06,5.60
2008,05,30,17,07,4.20
2008,05,30,17,08,4.20
2008,05,30,17,09,6.60
2008,05,30,17,10,5.90
2008,05,30,17,11,6.10
2008,05,30,17,12,7.60
2008,05,30,17,13,11.80
2008,05,30,17,14,5.20
2008,05,30,17,15,4.20
2008,05,30,17,16,5.20
2008,05,30,17,17,6.00
2008,05,30,17,18,5.20
2008,05,30,17,19,7.30
2008,05,30,17,20,4.30
2008,05,30,17,21,3.60
2008,05,30,17,22,5.90
2008,05,30,17,23,2.80
2008,05,30,17,24,3.00
2008,05,30,17,25,4.00
2008,05,30,17,26,5.40
2008,05,30,17,27,6.00
2008,05,30,17,28,5.10
2008,05,30,17,29,5.60
2008,05,30,17,30,6.90
2008,05,30,17,31,7.30
2008,05,30,17,32,6.40
2008,05,30,17,33,7.50
2008,05,30,17,34,7.30
2008,05,30,17,35,8.40
2008,05,30,17,36,5.90
2008,05,30,17,37,4.50
2008,05,30,17,38,8.90
2008,05,30,17,39,8.80
2008,05,30,17,40,10.20
2008,05,30,17,41,7.60
2008,05,30,17,42,7.80
2008,05,30,17,43,6.30
2008,05,30,17,44,5.40
2008,05,30,17,45,4.60
2008,05,30,17,46,3.40
2008,05,30,17,47,4.10
2008,05,30,17,48,4.20
2008,05,30,17,49,4.50
2008,05,30,17,50,7.20
2008,05,30,17,51,2.60
2008,05,30,17,52,3.30
2008,05,30,17,53,3.70
2008,05,30,17,54,2.90
2008,05,30,17,55,8.50
2008,05,30,17,56,5.80
2008,05,30,17,57,2.90
2008,05,30,17,58,5.20
2008,05,30,17,59,2.80
2008,05,30,18,00,2.30
2008,05,30,18,01,2.70
2008,05,30,18,02,2.50
2008,05,30,18,03,3.00
2008,05,30,18,04,6.20
2008,05,30,18,05,4.90
2008,05,30,18,06,7.70
2008,05,30,18,07,2.80
2008,05,30,18,08,2.30
2008,05,30,18,09,4.80
2008,05,30,18,10,2.90
2008,05,30,18,11,1.80
2008,05,30,18,12,1.30
2008,05,30,18,13,1.40
2008,05,30,18,14,0.90
2008,05,30,18,15,2.90
2008,05,30,18,16,2.00
2008,05,30,18,17,4.60
2008,05,30,18,18,2.40
2008,05,30,18,19,3.90
2008,05,30,18,20,3.70
2008,05,30,18,21,6.00
2008,05,30,18,22,4.80
2008,05,30,18,23,8.30
2008,05,30,18,24,3.30
2008,05,30,18,25,0.60
2008,05,30,18,26,1.50
2008,05,30,18,27,2.90
2008,05,30,18,28,3.10
2008,05,30,18,29,4.70
2008,05,30,18,30,5.60
2008,05,30,18,31,5.50
2008,05,30,18,32,7.30
2008,05,30,18,33,4.10
2008,05,30,18,34,3.20
2008,05,30,18,35,4.30
2008,05,30,18,36,3.50
2008,05,30,18,37,4.00
2008,05,30,18,38,2.30
2008,05,30,18,39,2.20
2008,05,30,18,40,0.70
2008,05,30,18,41,2.30
2008,05,30,18,42,3.50
2008,05,30,18,43,2.20
2008,05,30,18,44,1.50
2008,05,30,18,45,1.00
2008,05,30,18,46,2.90
2008,05,30,18,47,3.50
2008,05,30,18,48,3.40
2008,05,30,18,49,2.00
2008,05,30,18,50,1.10
2008,05,30,18,51,4.80
2008,05,30,18,52,3.10
2008,05,30,18,53,4.70
2008,05,30,18,54,4.10
2008,05,30,18,55,4.20
2008,05,30,18,56,1.30
2008,05,30,18,57,2.30
2008,05,30,18,58,2.00
2008,05,30,18,59,2.30
2008,05,30,19,00,0.50
2008,05,30,19,01,1.00
2008,05,30,19,02,1.30
2008,05,30,19,03,1.10
2008,05,30,19,04,0.30
2008,05,30,19,05,0.00
2008,05,30,19,06,1.20
2008,05,30,19,07,0.30
2008,05,30,19,08,1.20
2008,05,30,19,09,2.30
2008,05,30,19,10,0.90
2008,05,30,19,11,1.90
2008,05,30,19,12,2.10
2008,05,30,19,13,1.10
2008,05,30,19,14,0.20
2008,05,30,19,15,0.00
2008,05,30,19,16,0.20
2008,05,30,19,17,0.00
2008,05,30,19,18,0.20
2008,05,30,19,19,0.00
2008,05,30,19,20,0.00
2008,05,30,19,21,0.00
2008,05,30,19,22,0.50
2008,05,30,19,23,0.40
2008,05,30,19,24,0.70
2008,05,30,19,25,0.60
2008,05,30,19,26,1.70
2008,05,30,19,27,0.10
2008,05,30,19,28,2.50
2008,05,30,19,29,1.00
2008,05,30,19,30,0.60
2008,05,30,19,31,0.40
2008,05,30,19,32,1.50
2008,05,30,19,33,1.00
2008,05,30,19,34,1.90
2008,05,30,19,35,1.60
2008,05,30,19,36,2.50
2008,05,30,19,37,1.00
2008,05,30,19,38,0.70
2008,05,30,19,39,1.90
2008,05,30,19,40,3.00
2008,05,30,19,41,2.30
2008,05,30,19,42,1.60
2008,05,30,19,43,1.30
2008,05,30,19,44,0.70
2008,05,30,19,45,0.00
2008,05,30,19,46,0.00
2008,05,30,19,47,0.00
2008,05,30,19,48,0.60
2008,05,30,19,49,0.20
2008,05,30,19,50,0.00
2008,05,30,19,51,0.00
2008,05,30,19,52,0.00
2008,05,30,19,53,0.00
2008,05,30,19,54,0.00
2008,05,30,19,55,0.00
2008,05,30,19,56,0.00
2008,05,30,19,57,0.30
2008,05,30,19,58,0.00
2008,05,30,19,59,1.60
2008,05,30,20,00,3.30
2008,05,30,20,01,3.10
2008,05,30,20,02,2.80
2008,05,30,20,03,2.90
2008,05,30,20,11,0.00
2008,05,30,20,12,0.00
2008,05,30,20,13,0.00
2008,05,30,20,14,0.00
2008,05,30,20,15,0.00
2008,05,30,20,16,0.00
2008,05,30,20,17,0.00
2008,05,30,20,18,0.00
2008,05,30,20,19,0.00
2008,05,30,20,20,0.00
2008,05,30,20,21,0.00
2008,05,30,20,22,0.00
2008,05,30,20,23,0.00
2008,05,30,20,24,0.00
2008,05,30,20,25,0.00
2008,05,30,20,26,0.00
2008,05,30,20,27,0.00
2008,05,30,20,28,0.00
2008,05,30,20,29,0.00
2008,05,30,20,30,0.80
2008,05,30,20,31,0.30
2008,05,30,20,32,0.00
2008,05,30,20,33,0.00
2008,05,30,20,34,0.00
2008,05,30,20,35,0.00
2008,05,30,20,36,0.00
2008,05,30,20,37,0.00
2008,05,30,20,38,0.00
2008,05,30,20,39,0.00
2008,05,30,20,40,0.00
2008,05,30,20,41,0.00
2008,05,30,20,42,0.30
2008,05,30,20,43,0.00
2008,05,30,20,44,0.00
2008,05,30,20,45,0.00
2008,05,30,20,46,0.00
2008,05,30,20,47,0.00
2008,05,30,20,48,0.00
2008,05,30,20,49,0.00
2008,05,30,20,50,0.00
2008,05,30,20,51,0.00
2008,05,30,20,52,0.00
2008,05,30,20,53,0.00